AK4FD Weather Reports


Display with metric or nautical units.
time (UTC)temp
F
wind
direction
speed
MPH
gust
MPH
rain 1hr
in
rain 24hr
in
rain mn
in
humidity
%
barometer
mb
20260906052217 74 76 0.0 0.0 0.00 0.00 0.00 88 1013.4
20260906051714 74 38 1.0 1.0 0.00 0.00 0.00 88 1013.3
20260906051213 74 235 0.0 0.0 0.00 0.00 0.00 88 1013.4
20260906050708 75 230 0.0 0.0 0.00 0.00 0.00 88 1013.5
20260906050203 75 269 1.0 1.0 0.00 0.00 0.00 88 1013.5
20260906045701 75 22 0.0 1.0 0.00 0.00 0.00 88 1013.4
20260906045157 75 266 0.0 1.0 0.00 0.00 0.00 87 1013.6
20260906044653 75 259 1.0 2.0 0.00 0.00 0.00 87 1013.2
20260906044148 75 246 1.0 2.0 0.00 0.00 0.00 87 1013.5
20260906043644 75 264 1.0 2.0 0.00 0.00 0.00 87 1013.5
20260906043139 75 301 1.0 2.0 0.00 0.00 0.00 87 1013.4
20260906042639 75 294 1.0 2.0 0.00 0.00 0.00 88 1013.5
20260906042133 74 258 2.0 2.0 0.00 0.00 0.00 89 1013.5
20260906041630 74 273 1.0 2.0 0.00 0.00 0.00 89 1013.7
20260906041130 74 276 2.0 2.0 0.00 0.00 0.00 90 1013.6
20260906040625 74 271 2.0 2.0 0.00 0.00 0.00 91 1013.6
20260906040121 73 269 0.0 2.0 0.00 0.00 0.00 91 1013.8
20260906035616 73 264 0.0 1.0 0.00 0.00 0.00 91 1013.7
20260906035112 73 309 0.0 0.0 0.00 0.00 0.00 91 1013.8
20260906034611 73 224 0.0 1.0 0.00 0.00 0.00 91 1014.0
20260906034106 73 309 0.0 0.0 0.00 0.00 0.00 90 1014.1
20260906033602 73 31 0.0 1.0 0.00 0.00 0.00 90 1013.9
20260906033057 73 50 0.0 2.0 0.00 0.00 0.00 90 1014.0
20260906032554 74 81 0.0 1.0 0.00 0.00 0.00 91 1013.9
20260906032053 74 63 0.0 0.0 0.00 0.00 0.00 91 1013.8
20260906031549 74 50 0.0 0.0 0.00 0.00 0.00 90 1013.9
20260906031044 74 117 0.0 1.0 0.00 0.00 0.00 92 1013.9
20260906030543 74 117 0.0 1.0 0.00 0.00 0.00 91 1013.8
20260906030038 74 108 1.0 1.0 0.00 0.00 0.00 91 1013.9
20260906025538 73 62 0.0 1.0 0.00 0.00 0.00 90 1013.8
20260906025036 73 116 0.0 0.0 0.00 0.00 0.00 90 1013.7
20260906024531 73 217 0.0 0.0 0.00 0.00 0.00 90 1013.6
20260906024031 73 60 0.0 0.0 0.00 0.00 0.00 88 1013.7
20260906023527 74 57 0.0 1.0 0.00 0.00 0.00 88 1013.7
20260906023022 74 147 0.0 0.0 0.00 0.00 0.00 87 1013.5
20260906022517 74 37 0.0 1.0 0.00 0.00 0.00 87 1013.6
20260906022013 74 68 0.0 1.0 0.00 0.00 0.00 88 1013.4
20260906021509 74 111 0.0 1.0 0.00 0.00 0.00 87 1013.5
20260906021008 74 65 0.0 0.0 0.00 0.00 0.00 86 1013.5
20260906020507 74 49 0.0 0.0 0.00 0.00 0.00 87 1013.5
20260906020007 75 66 0.0 0.0 0.00 0.00 0.00 86 1013.7
20260906015506 75 66 0.0 0.0 0.00 0.00 0.00 85 1013.2
20260906015007 75 297 0.0 0.0 0.00 0.00 0.00 85 1013.3
20260906014501 75 87 0.0 1.0 0.00 0.00 0.00 85 1013.4
20260906013957 75 55 0.0 0.0 0.00 0.00 0.00 85 1013.6
20260906013452 75 0 0.0 0.0 0.00 0.00 0.00 85 1013.4
20260906012949 75 135 0.0 1.0 0.00 0.00 0.00 84 1013.5
20260906012449 75 117 0.0 1.0 0.00 0.00 0.00 84 1013.3
20260906011948 75 117 0.0 1.0 0.00 0.00 0.00 84 1013.5
20260906011444 75 124 0.0 1.0 0.00 0.00 0.00 84 1013.1
20260906010939 76 114 0.0 1.0 0.00 0.00 0.00 84 1013.1
20260906010434 76 113 0.0 0.0 0.00 0.00 0.00 83 1012.8
20260906005930 76 22 0.0 1.0 0.00 0.00 0.00 83 1013.0
20260906005430 76 24 0.0 1.0 0.00 0.00 0.00 82 1013.0
20260906004928 77 0 0.0 1.0 0.00 0.00 0.00 82 1012.8
20260906004422 77 15 0.0 1.0 0.00 0.00 0.00 81 1012.7
20260906003918 78 0 0.0 0.0 0.00 0.00 0.00 80 1013.2
20260906003413 78 343 0.0 0.0 0.00 0.00 0.00 79 1013.0
20260906002908 78 62 0.0 0.0 0.00 0.00 0.00 78 1013.0
20260906002403 78 37 0.0 0.0 0.00 0.00 0.00 77 1012.8
20260906001858 79 304 0.0 0.0 0.00 0.00 0.00 76 1012.7
20260906001354 79 333 0.0 0.0 0.00 0.00 0.00 75 1012.8
20260906000854 80 135 0.0 0.0 0.00 0.00 0.00 74 1012.6
20260906000355 80 37 0.0 0.0 0.00 0.00 0.00 73 1012.7
20260905235848 80 121 0.0 1.0 0.00 0.00 0.00 73 1012.4
20260905235343 80 147 0.0 1.0 0.00 0.00 0.00 72 1012.3
20260905234838 81 154 0.0 0.0 0.00 0.00 0.00 71 1012.2
20260905234333 81 44 0.0 0.0 0.00 0.00 0.00 70 1012.3
20260905233828 82 44 0.0 0.0 0.00 0.00 0.00 70 1012.1
20260905233323 82 297 0.0 0.0 0.00 0.00 0.00 69 1012.2
20260905232822 82 297 0.0 0.0 0.00 0.00 0.00 67 1012.0
20260905232319 82 299 0.0 1.0 0.00 0.00 0.00 67 1012.2
20260905231814 83 297 0.0 1.0 0.00 0.00 0.00 66 1012.0
20260905231309 83 284 0.0 1.0 0.00 0.00 0.00 65 1012.2
20260905230805 83 310 0.0 0.0 0.00 0.00 0.00 65 1012.2
20260905230303 83 297 0.0 1.0 0.00 0.00 0.00 64 1012.3
20260905225803 84 329 0.0 0.0 0.00 0.00 0.00 65 1012.5
20260905225258 84 303 1.0 1.0 0.00 0.00 0.00 64 1012.4
20260905224757 84 326 0.0 0.0 0.00 0.00 0.00 65 1012.3
20260905224253 84 297 0.0 1.0 0.00 0.00 0.00 63 1012.3
20260905223748 84 326 0.0 1.0 0.00 0.00 0.00 63 1012.3
20260905223246 84 297 0.0 2.0 0.00 0.00 0.00 62 1012.1
20260905222741 84 329 0.0 1.0 0.00 0.00 0.00 62 1012.2
20260905222240 84 269 1.0 1.0 0.00 0.00 0.00 61 1012.1
20260905221736 84 242 0.0 1.0 0.00 0.00 0.00 61 1012.1
20260905221233 84 293 1.0 2.0 0.00 0.00 0.00 60 1012.1
20260905220728 84 306 1.0 1.0 0.00 0.00 0.00 60 1012.4
20260905220224 85 308 1.0 2.0 0.00 0.00 0.00 60 1012.3
20260905215723 84 309 1.0 2.0 0.00 0.00 0.00 61 1012.4
20260905215219 84 251 2.0 2.0 0.00 0.00 0.00 61 1012.3
20260905214715 84 273 1.0 1.0 0.00 0.00 0.00 61 1012.4
20260905214210 84 269 0.0 2.0 0.00 0.00 0.00 61 1012.6
20260905213705 84 313 1.0 2.0 0.00 0.00 0.00 60 1012.7
20260905213201 84 297 1.0 2.0 0.00 0.00 0.00 60 1012.9
20260905212656 84 284 0.0 1.0 0.00 0.00 0.00 60 1012.7
20260905212155 83 318 0.0 2.0 0.00 0.00 0.00 60 1012.9
20260905211650 83 320 1.0 2.0 0.00 0.00 0.00 61 1012.8
20260905211146 83 297 0.0 0.0 0.00 0.00 0.00 60 1012.7
20260905210643 82 284 0.0 2.0 0.00 0.00 0.00 61 1012.9
20260905210142 81 319 0.0 2.0 0.00 0.00 0.00 63 1012.8
20260905205641 80 119 0.0 3.0 0.00 0.00 0.00 65 1012.9
20260905205136 80 151 0.0 2.0 0.00 0.00 0.00 66 1013.2
20260905204635 80 127 0.0 2.0 0.00 0.00 0.00 67 1013.3
20260905204131 80 52 0.0 2.0 0.00 0.00 0.00 67 1013.1
20260905203631 80 119 2.0 2.0 0.00 0.00 0.00 67 1013.1
20260905203126 80 135 0.0 2.0 0.00 0.00 0.00 67 1013.1
20260905202622 81 65 0.0 2.0 0.00 0.00 0.00 66 1013.0
20260905202117 81 184 0.0 2.0 0.00 0.00 0.00 66 1013.0
20260905201612 81 141 0.0 2.0 0.00 0.00 0.00 68 1013.0
20260905201112 81 28 0.0 0.0 0.00 0.00 0.00 68 1012.8
20260905200608 81 13 0.0 0.0 0.00 0.00 0.00 67 1012.9
20260905195601 81 301 0.0 1.0 0.00 0.00 0.00 67 1013.3
20260905195057 81 296 0.0 1.0 0.00 0.00 0.00 67 1013.5
20260905194556 81 235 0.0 2.0 0.00 0.00 0.00 67 1013.7
20260905194056 81 243 0.0 2.0 0.00 0.00 0.00 66 1013.7
20260905193551 81 296 0.0 1.0 0.00 0.00 0.00 67 1013.7
20260905193046 82 346 0.0 1.0 0.00 0.00 0.00 67 1013.9
20260905192541 82 142 0.0 1.0 0.00 0.00 0.00 67 1013.9
20260905192038 83 309 0.0 1.0 0.00 0.00 0.00 66 1013.4
20260905191536 83 42 0.0 1.0 0.00 0.00 0.00 65 1012.5
20260905191035 84 333 1.0 2.0 0.00 0.00 0.00 63 1012.3
20260905190534 84 311 1.0 2.0 0.00 0.00 0.00 60 1012.1
20260905190034 84 302 2.0 2.0 0.00 0.00 0.00 63 1012.3
20260905185533 85 292 1.0 2.0 0.00 0.00 0.00 61 1012.3
20260905185033 85 324 0.0 2.0 0.00 0.00 0.00 62 1012.4
20260905184533 85 340 1.0 2.0 0.00 0.00 0.00 60 1012.7
20260905184032 86 296 0.0 1.0 0.00 0.00 0.00 61 1012.4
20260905183531 86 322 0.0 2.0 0.00 0.00 0.00 59 1012.4
20260905183027 86 277 1.0 2.0 0.00 0.00 0.00 58 1012.8
20260905182521 86 316 1.0 2.0 0.00 0.00 0.00 57 1013.0
20260905182021 88 323 3.0 8.0 0.00 0.00 0.00 53 1013.5
20260905181516 93 291 4.0 12.0 0.00 0.00 0.00 46 1013.3
20260905181015 95 269 2.0 3.0 0.00 0.00 0.00 46 1013.3
20260905180510 95 293 2.0 4.0 0.00 0.00 0.00 47 1013.3
20260905180006 96 298 2.0 4.0 0.00 0.00 0.00 44 1013.3
20260905175504 96 302 3.0 3.0 0.00 0.00 0.00 46 1013.4
20260905175000 96 294 2.0 4.0 0.00 0.00 0.00 46 1013.5
20260905174455 95 287 2.0 3.0 0.00 0.00 0.00 47 1013.7
20260905173951 95 267 3.0 3.0 0.00 0.00 0.00 48 1013.9
20260905173447 95 299 2.0 3.0 0.00 0.00 0.00 48 1013.8
20260905172942 95 293 2.0 3.0 0.00 0.00 0.00 48 1013.8
20260905172440 94 300 2.0 4.0 0.00 0.00 0.00 49 1013.9
20260905171936 95 302 0.0 3.0 0.00 0.00 0.00 48 1014.3
20260905171433 94 251 0.0 3.0 0.00 0.00 0.00 47 1014.1
20260905170929 95 285 3.0 4.0 0.00 0.00 0.00 49 1014.0
20260905170425 94 72 0.0 3.0 0.00 0.00 0.00 48 1014.4
20260905165924 94 296 2.0 4.0 0.00 0.00 0.00 48 1014.5
20260905165419 94 294 3.0 3.0 0.00 0.00 0.00 49 1014.1
20260905164915 93 301 2.0 3.0 0.00 0.00 0.00 49 1014.5
20260905164408 93 330 2.0 2.0 0.00 0.00 0.00 53 1014.7
20260905163903 93 274 2.0 3.0 0.00 0.00 0.00 52 1014.8
20260905163400 93 313 2.0 2.0 0.00 0.00 0.00 55 1014.7
20260905162856 92 315 1.0 3.0 0.00 0.00 0.00 54 1014.9
20260905162355 92 276 1.0 3.0 0.00 0.00 0.00 54 1014.8
20260905161850 92 274 3.0 3.0 0.00 0.00 0.00 55 1015.1
20260905161349 92 321 2.0 2.0 0.00 0.00 0.00 55 1015.2
20260905160849 92 334 2.0 4.0 0.00 0.00 0.00 54 1014.9
20260905160343 91 305 1.0 1.0 0.00 0.00 0.00 56 1014.8
20260905155843 91 162 0.0 4.0 0.00 0.00 0.00 55 1015.0
20260905155337 91 55 2.0 2.0 0.00 0.00 0.00 58 1015.0
20260905154836 91 276 2.0 3.0 0.00 0.00 0.00 58 1014.8
20260905154332 91 294 2.0 2.0 0.00 0.00 0.00 58 1015.3
20260905153827 91 274 2.0 3.0 0.00 0.00 0.00 58 1015.2
20260905153324 90 144 1.0 1.0 0.00 0.00 0.00 61 1015.0
20260905152823 90 274 2.0 2.0 0.00 0.00 0.00 62 1015.0
20260905152322 89 148 2.0 2.0 0.00 0.00 0.00 61 1015.3
20260905151818 89 248 0.0 2.0 0.00 0.00 0.00 62 1015.2
20260905151313 88 294 0.0 2.0 0.00 0.00 0.00 64 1014.9
20260905150813 88 297 0.0 2.0 0.00 0.00 0.00 65 1015.1
20260905150313 88 267 2.0 2.0 0.00 0.00 0.00 66 1015.1
20260905145811 88 314 1.0 1.0 0.00 0.00 0.00 66 1015.3
20260905145310 88 247 3.0 3.0 0.00 0.00 0.00 67 1015.3
20260905144809 87 297 0.0 1.0 0.00 0.00 0.00 68 1015.2
20260905144305 87 220 1.0 2.0 0.00 0.00 0.00 67 1015.4
20260905143804 86 82 0.0 1.0 0.00 0.00 0.00 72 1015.1
20260905143258 85 259 0.0 2.0 0.00 0.00 0.00 72 1015.1
20260905142757 85 206 1.0 2.0 0.00 0.00 0.00 72 1015.3
20260905142251 84 269 2.0 2.0 0.00 0.00 0.00 72 1015.1
20260905141748 84 267 1.0 2.0 0.00 0.00 0.00 73 1015.1
20260905141243 84 64 2.0 2.0 0.00 0.00 0.00 74 1015.2
20260905140738 83 269 0.0 1.0 0.00 0.00 0.00 77 1015.3
20260905140233 83 269 0.0 1.0 0.00 0.00 0.00 77 1015.0
20260905135732 82 250 2.0 2.0 0.00 0.00 0.00 76 1015.2
20260905135228 82 297 0.0 1.0 0.00 0.00 0.00 77 1015.3
20260905134727 82 269 1.0 1.0 0.00 0.00 0.00 79 1015.3
20260905134227 82 252 0.0 1.0 0.00 0.00 0.00 79 1015.0
20260905133722 81 111 2.0 2.0 0.00 0.00 0.00 80 1015.3
20260905133217 81 348 1.0 2.0 0.00 0.00 0.00 80 1015.4
20260905132716 80 249 0.0 1.0 0.00 0.00 0.00 82 1015.3
20260905132211 80 0 0.0 0.0 0.00 0.00 0.00 84 1015.3
20260905131707 79 242 0.0 0.0 0.00 0.00 0.00 83 1015.3
20260905131202 79 154 0.0 0.0 0.00 0.00 0.00 85 1015.2
20260905130702 78 185 0.0 1.0 0.00 0.00 0.00 86 1015.2
20260905130156 78 309 0.0 0.0 0.00 0.00 0.00 86 1015.4
20260905125656 77 205 0.0 0.0 0.00 0.00 0.00 87 1015.3
20260905125152 77 255 0.0 1.0 0.00 0.00 0.00 89 1015.2
20260905124648 76 60 0.0 0.0 0.00 0.00 0.00 90 1015.3
20260905124144 76 198 0.0 2.0 0.00 0.00 0.00 90 1015.3
20260905123638 75 293 0.0 1.0 0.00 0.00 0.00 92 1015.4
20260905123136 75 81 1.0 2.0 0.00 0.00 0.00 93 1015.3
20260905122635 75 129 0.0 2.0 0.00 0.00 0.00 92 1015.4
20260905122130 74 255 1.0 2.0 0.00 0.00 0.00 92 1015.4
20260905121625 74 64 0.0 2.0 0.00 0.00 0.00 93 1015.3
20260905121120 74 27 0.0 2.0 0.00 0.00 0.00 94 1015.2
20260905120619 74 32 0.0 3.0 0.00 0.00 0.00 94 1015.2
20260905120114 73 352 0.0 2.0 0.00 0.00 0.00 94 1015.3
20260905115613 73 56 0.0 2.0 0.00 0.00 0.00 94 1015.3
20260905115109 73 354 0.0 1.0 0.00 0.00 0.00 93 1015.2
20260905114608 73 37 1.0 2.0 0.00 0.00 0.00 94 1015.3
20260905114107 73 70 0.0 2.0 0.00 0.00 0.00 94 1015.3
20260905113602 73 115 0.0 2.0 0.00 0.00 0.00 94 1014.9
20260905113057 73 71 1.0 2.0 0.00 0.00 0.00 93 1014.9
20260905112552 73 108 0.0 1.0 0.00 0.00 0.00 94 1014.6
20260905112048 73 139 0.0 1.0 0.00 0.00 0.00 93 1014.7
20260905111543 73 50 0.0 0.0 0.00 0.00 0.00 93 1014.7
20260905111042 73 13 0.0 1.0 0.00 0.00 0.00 93 1014.7
20260905110541 73 53 0.0 0.0 0.00 0.00 0.00 94 1014.7
20260905110036 73 65 0.0 1.0 0.00 0.00 0.00 94 1014.7
20260905105536 73 96 1.0 1.0 0.00 0.00 0.00 94 1014.6
20260905105030 73 106 1.0 1.0 0.00 0.00 0.00 94 1014.4
20260905104526 73 89 0.0 1.0 0.00 0.00 0.00 93 1014.3
20260905104025 73 39 0.0 1.0 0.00 0.00 0.00 93 1014.4
20260905103521 73 21 1.0 1.0 0.00 0.00 0.00 93 1014.4
20260905103017 73 62 0.0 0.0 0.00 0.00 0.00 93 1014.1
20260905102513 73 62 0.0 1.0 0.00 0.00 0.00 93 1013.9
20260905102009 73 44 0.0 0.0 0.00 0.00 0.00 94 1013.9
20260905101508 73 44 0.0 0.0 0.00 0.00 0.00 94 1014.4
20260905101006 73 333 0.0 0.0 0.00 0.00 0.00 94 1014.1
20260905100503 73 117 0.0 0.0 0.00 0.00 0.00 94 1014.1
20260905100001 73 202 0.0 0.0 0.00 0.00 0.00 94 1014.0
20260905095456 73 235 0.0 1.0 0.00 0.00 0.00 93 1013.9
20260905094952 73 89 0.0 0.0 0.00 0.00 0.00 94 1014.0
20260905094447 73 89 0.0 0.0 0.00 0.00 0.00 93 1013.9
20260905093945 73 89 0.0 0.0 0.00 0.00 0.00 93 1014.3
20260905093441 73 269 0.0 0.0 0.00 0.00 0.00 94 1014.1
20260905092936 73 290 0.0 0.0 0.00 0.00 0.00 93 1014.1
20260905092431 73 265 0.0 0.0 0.00 0.00 0.00 93 1014.3
20260905091927 74 304 0.0 0.0 0.00 0.00 0.00 93 1013.8
20260905091426 74 105 0.0 1.0 0.00 0.00 0.00 93 1014.0
20260905090926 74 104 0.0 1.0 0.00 0.00 0.00 93 1013.9
20260905090421 74 101 0.0 1.0 0.00 0.00 0.00 92 1014.3
20260905085920 74 94 1.0 1.0 0.00 0.00 0.00 92 1014.0
20260905085420 74 89 0.0 1.0 0.00 0.00 0.00 91 1014.3
20260905084916 75 70 0.0 1.0 0.00 0.00 0.00 91 1014.1
20260905084415 75 73 0.0 0.0 0.00 0.00 0.00 91 1014.0
20260905083910 75 88 0.0 1.0 0.00 0.00 0.00 91 1014.1
20260905083406 75 18 0.0 0.0 0.00 0.00 0.00 90 1014.4
20260905082901 75 326 0.0 0.0 0.00 0.00 0.00 91 1014.4
20260905082357 75 35 0.0 1.0 0.00 0.00 0.00 90 1014.3
20260905081852 75 9 0.0 1.0 0.00 0.00 0.00 90 1014.3
20260905081347 75 322 0.0 1.0 0.00 0.00 0.00 90 1014.0
20260905080846 75 308 0.0 1.0 0.00 0.00 0.00 91 1014.1
20260905080346 75 333 0.0 1.0 0.00 0.00 0.00 90 1014.7
20260905075846 75 333 0.0 1.0 0.00 0.00 0.00 91 1014.6
20260905075340 75 117 0.0 0.0 0.00 0.00 0.00 90 1014.6
20260905074839 75 32 0.0 0.0 0.00 0.00 0.00 90 1014.5
20260905074335 75 338 0.0 0.0 0.00 0.00 0.00 90 1014.7
20260905073830 75 352 0.0 0.0 0.00 0.00 0.00 90 1014.8
20260905073326 75 32 0.0 0.0 0.00 0.00 0.00 90 1014.7
20260905072825 75 13 0.0 1.0 0.00 0.00 0.00 89 1014.9
20260905072320 76 25 0.0 0.0 0.00 0.00 0.00 89 1014.9
20260905071818 76 50 0.0 1.0 0.00 0.00 0.00 89 1014.6
20260905071314 76 23 0.0 0.0 0.00 0.00 0.00 89 1014.7
20260905070814 76 242 0.0 1.0 0.00 0.00 0.00 89 1014.8
20260905070310 76 324 0.0 1.0 0.00 0.00 0.00 89 1015.0
20260905065809 76 326 0.0 0.0 0.00 0.00 0.00 89 1015.0
20260905065308 76 329 0.0 1.0 0.00 0.00 0.00 89 1015.0
20260905064803 76 25 0.0 1.0 0.00 0.00 0.00 89 1015.1
20260905064258 76 307 0.0 1.0 0.00 0.00 0.00 89 1015.2
20260905063757 76 62 0.0 0.0 0.00 0.00 0.00 89 1015.1
20260905063253 76 242 0.0 0.0 0.00 0.00 0.00 89 1015.2
20260905062749 76 147 0.0 0.0 0.00 0.00 0.00 88 1015.2
20260905062249 76 315 0.0 0.0 0.00 0.00 0.00 89 1015.3
20260905061744 76 217 0.0 0.0 0.00 0.00 0.00 88 1015.5
20260905061244 76 309 0.0 1.0 0.00 0.00 0.00 87 1015.5
20260905060738 77 343 0.0 0.0 0.00 0.00 0.00 87 1015.5
20260905060236 77 333 0.0 1.0 0.00 0.00 0.00 87 1015.8
20260905055734 77 50 0.0 0.0 0.00 0.00 0.00 87 1015.7
20260905055229 77 50 0.0 0.0 0.00 0.00 0.00 87 1015.8
20260905054724 77 89 0.0 0.0 0.00 0.00 0.00 86 1015.8
20260905054221 77 104 0.0 0.0 0.00 0.00 0.00 86 1015.7
20260905053719 77 255 0.0 1.0 0.00 0.00 0.00 87 1015.9
20260905053214 77 255 0.0 0.0 0.00 0.00 0.00 87 1015.9
20260905052708 77 242 0.0 1.0 0.00 0.00 0.00 87 1016.0